Time,TemperatureF,DewpointF,PressureIn,WindDirection,WindDirectionDegrees,WindSpeedMPH,WindSpeedGustMPH,Humidity,HourlyPrecipIn,Conditions,Clouds,dailyrainin,SolarRadiationWatts/m^2,SoftwareType,DateUTC
2013-03-06 00:00:00,35.2,33.1,30.12,NNW,347,3.0,3.0,92,0.00,,,0.00,0,Wunderground v.1.15,2013-03-06 05:00:00,
2013-03-06 00:01:00,35.2,33.1,30.12,ENE,74,3.0,3.0,92,0.00,,,0.00,0,Wunderground v.1.15,2013-03-06 05:01:00,
2013-03-06 00:02:00,35.2,33.1,30.12,NW,311,2.0,4.0,92,0.00,,,0.00,0,Wunderground v.1.15,2013-03-06 05:02:00,
2013-03-06 00:04:00,35.2,33.1,30.12,NNE,32,2.0,4.0,92,0.00,,,0.00,0,Wunderground v.1.15,2013-03-06 05:04:00,
2013-03-06 00:10:00,35.2,33.1,30.12,NW,319,2.0,3.0,92,0.00,,,0.00,0,Wunderground v.1.15,2013-03-06 05:10:00,
2013-03-06 00:15:00,35.2,33.1,30.12,NNE,16,2.0,4.0,92,0.00,,,0.00,0,Wunderground v.1.15,2013-03-06 05:15:00,
2013-03-06 00:20:00,35.1,33.0,30.13,NNE,24,2.0,4.0,92,0.00,,,0.00,0,Wunderground v.1.15,2013-03-06 05:20:00,
2013-03-06 00:26:00,35.0,32.9,30.13,North,355,2.0,4.0,92,0.00,,,0.00,0,Wunderground v.1.15,2013-03-06 05:26:00,
2013-03-06 00:31:00,35.0,32.9,30.13,NNW,344,2.0,2.0,92,0.00,,,0.00,0,Wunderground v.1.15,2013-03-06 05:31:00,
2013-03-06 00:37:00,34.9,32.8,30.13,NNE,17,2.0,3.0,92,0.00,,,0.00,0,Wunderground v.1.15,2013-03-06 05:37:00,
2013-03-06 00:42:00,34.9,33.1,30.13,NNW,346,2.0,2.0,93,0.00,,,0.00,0,Wunderground v.1.15,2013-03-06 05:42:00,
2013-03-06 00:48:00,34.8,33.0,30.14,NNE,17,2.0,3.0,93,0.00,,,0.00,0,Wunderground v.1.15,2013-03-06 05:48:00,
2013-03-06 00:53:00,34.8,33.0,30.14,NW,325,2.0,2.0,93,0.00,,,0.00,0,Wunderground v.1.15,2013-03-06 05:53:00,
2013-03-06 00:59:00,34.8,33.0,30.14,North,360,2.0,3.0,93,0.00,,,0.00,0,Wunderground v.1.15,2013-03-06 05:59:00,
2013-03-06 01:04:00,34.8,33.0,30.14,North,355,2.0,2.0,93,0.00,,,0.00,0,Wunderground v.1.15,2013-03-06 06:04:00,
2013-03-06 01:09:00,34.9,33.1,30.14,North,10,3.0,6.0,93,0.00,,,0.00,0,Wunderground v.1.15,2013-03-06 06:09:00,
2013-03-06 01:14:00,35.0,32.9,30.14,North,355,3.0,5.0,92,0.00,,,0.00,0,Wunderground v.1.15,2013-03-06 06:14:00,
2013-03-06 01:20:00,35.0,32.9,30.14,NNW,334,2.0,2.0,92,0.00,,,0.00,0,Wunderground v.1.15,2013-03-06 06:20:00,
2013-03-06 01:25:00,35.0,32.9,30.14,ENE,70,3.0,4.0,92,0.00,,,0.00,0,Wunderground v.1.15,2013-03-06 06:25:00,
2013-03-06 01:30:00,35.1,33.0,30.14,ESE,105,3.0,3.0,92,0.00,,,0.00,0,Wunderground v.1.15,2013-03-06 06:30:00,
2013-03-06 01:35:00,35.2,33.1,30.14,NE,34,2.0,5.0,92,0.00,,,0.00,0,Wunderground v.1.15,2013-03-06 06:35:00,
2013-03-06 01:40:00,35.3,33.2,30.14,East,80,3.0,3.0,92,0.00,,,0.00,0,Wunderground v.1.15,2013-03-06 06:40:00,
2013-03-06 01:46:00,35.4,33.0,30.14,NE,43,4.0,12.0,91,0.00,,,0.00,0,Wunderground v.1.15,2013-03-06 06:46:00,
2013-03-06 01:52:00,35.6,33.2,30.14,North,350,4.0,4.0,91,0.00,,,0.00,0,Wunderground v.1.15,2013-03-06 06:52:00,
2013-03-06 01:58:00,35.6,33.0,30.14,ENE,64,3.0,4.0,90,0.00,,,0.00,0,Wunderground v.1.15,2013-03-06 06:58:00,
2013-03-06 02:03:00,35.7,33.1,30.14,ENE,74,3.0,10.0,90,0.00,,,0.00,0,Wunderground v.1.15,2013-03-06 07:03:00,
2013-03-06 02:08:00,35.7,33.1,30.14,NE,52,5.0,10.0,90,0.00,,,0.00,0,Wunderground v.1.15,2013-03-06 07:08:00,
2013-03-06 02:13:00,35.7,32.8,30.14,NNE,29,6.0,7.0,89,0.00,,,0.00,0,Wunderground v.1.15,2013-03-06 07:13:00,
2013-03-06 02:19:00,35.7,32.8,30.14,NE,36,5.0,10.0,89,0.00,,,0.00,0,Wunderground v.1.15,2013-03-06 07:19:00,
2013-03-06 02:25:00,35.7,32.8,30.14,NE,52,4.0,9.0,89,0.00,,,0.00,0,Wunderground v.1.15,2013-03-06 07:25:00,
2013-03-06 02:31:00,35.7,32.8,30.15,ENE,69,3.0,4.0,89,0.00,,,0.00,0,Wunderground v.1.15,2013-03-06 07:31:00,
2013-03-06 02:37:00,35.7,32.8,30.15,ENE,73,3.0,7.0,89,0.00,,,0.00,0,Wunderground v.1.15,2013-03-06 07:37:00,
2013-03-06 02:42:00,35.7,32.8,30.15,NNW,332,3.0,6.0,89,0.00,,,0.00,0,Wunderground v.1.15,2013-03-06 07:42:00,
2013-03-06 02:47:00,35.7,32.5,30.15,North,10,3.0,8.0,88,0.00,,,0.00,0,Wunderground v.1.15,2013-03-06 07:47:00,
2013-03-06 02:52:00,35.8,32.6,30.15,NE,46,5.0,8.0,88,0.00,,,0.00,0,Wunderground v.1.15,2013-03-06 07:52:00,
2013-03-06 02:57:00,35.8,32.6,30.15,North,355,4.0,8.0,88,0.00,,,0.00,0,Wunderground v.1.15,2013-03-06 07:57:00,
2013-03-06 03:03:00,35.7,32.5,30.16,NW,318,3.0,6.0,88,0.00,,,0.00,0,Wunderground v.1.15,2013-03-06 08:03:00,
2013-03-06 03:08:00,35.6,32.4,30.16,NE,40,2.0,6.0,88,0.00,,,0.00,0,Wunderground v.1.15,2013-03-06 08:08:00,
2013-03-06 03:14:00,35.6,32.4,30.16,NE,49,2.0,3.0,88,0.00,,,0.00,0,Wunderground v.1.15,2013-03-06 08:14:00,
2013-03-06 03:19:00,35.5,32.3,30.16,WNW,302,2.0,4.0,88,0.00,,,0.00,0,Wunderground v.1.15,2013-03-06 08:19:00,
2013-03-06 03:24:00,35.4,32.2,30.16,ENE,67,2.0,4.0,88,0.00,,,0.00,0,Wunderground v.1.15,2013-03-06 08:24:00,
2013-03-06 03:29:00,35.4,32.5,30.17,North,360,3.0,5.0,89,0.00,,,0.00,0,Wunderground v.1.15,2013-03-06 08:29:00,
2013-03-06 03:34:00,35.3,32.4,30.17,NNE,29,2.0,3.0,89,0.00,,,0.00,0,Wunderground v.1.15,2013-03-06 08:34:00,
2013-03-06 03:40:00,35.3,32.4,30.17,ESE,118,2.0,2.0,89,0.00,,,0.00,0,Wunderground v.1.15,2013-03-06 08:40:00,
2013-03-06 03:46:00,35.3,32.1,30.18,North,350,2.0,4.0,88,0.00,,,0.00,0,Wunderground v.1.15,2013-03-06 08:46:00,
2013-03-06 03:52:00,35.3,32.1,30.18,NNW,328,3.0,4.0,88,0.00,,,0.00,0,Wunderground v.1.15,2013-03-06 08:52:00,
2013-03-06 03:57:00,35.2,32.0,30.18,North,360,4.0,5.0,88,0.00,,,0.00,0,Wunderground v.1.15,2013-03-06 08:57:00,
2013-03-06 04:02:00,35.2,32.0,30.18,ENE,78,3.0,3.0,88,0.00,,,0.00,0,Wunderground v.1.15,2013-03-06 09:02:00,
2013-03-06 04:07:00,35.2,32.0,30.18,North,349,2.0,3.0,88,0.00,,,0.00,0,Wunderground v.1.15,2013-03-06 09:07:00,
2013-03-06 04:12:00,35.1,31.9,30.19,NNE,30,3.0,5.0,88,0.00,,,0.00,0,Wunderground v.1.15,2013-03-06 09:12:00,
2013-03-06 04:17:00,35.1,31.9,30.19,North,9,3.0,5.0,88,0.00,,,0.00,0,Wunderground v.1.15,2013-03-06 09:17:00,
2013-03-06 04:23:00,35.0,31.8,30.19,North,10,2.0,3.0,88,0.00,,,0.00,0,Wunderground v.1.15,2013-03-06 09:23:00,
2013-03-06 04:28:00,35.0,31.8,30.19,NNW,347,2.0,4.0,88,0.00,,,0.00,0,Wunderground v.1.15,2013-03-06 09:28:00,
2013-03-06 04:34:00,35.0,31.8,30.19,North,355,2.0,5.0,88,0.00,,,0.00,0,Wunderground v.1.15,2013-03-06 09:34:00,
2013-03-06 04:39:00,35.0,31.5,30.19,NE,46,2.0,5.0,87,0.00,,,0.00,0,Wunderground v.1.15,2013-03-06 09:39:00,
2013-03-06 04:45:00,34.9,31.4,30.20,NNE,22,2.0,3.0,87,0.00,,,0.00,0,Wunderground v.1.15,2013-03-06 09:45:00,
2013-03-06 04:50:00,34.9,31.4,30.20,NNW,331,2.0,2.0,87,0.00,,,0.00,0,Wunderground v.1.15,2013-03-06 09:50:00,
2013-03-06 04:56:00,34.9,31.4,30.20,NE,55,3.0,9.0,87,0.00,,,0.00,0,Wunderground v.1.15,2013-03-06 09:56:00,
2013-03-06 05:02:00,35.0,31.2,30.19,ENE,62,3.0,5.0,86,0.00,,,0.00,0,Wunderground v.1.15,2013-03-06 10:02:00,
2013-03-06 05:08:00,34.9,31.1,30.19,ENE,59,3.0,5.0,86,0.00,,,0.00,0,Wunderground v.1.15,2013-03-06 10:08:00,
2013-03-06 05:13:00,34.8,31.0,30.20,North,355,2.0,4.0,86,0.00,,,0.00,0,Wunderground v.1.15,2013-03-06 10:13:00,
2013-03-06 05:18:00,34.8,31.0,30.20,NNW,341,3.0,5.0,86,0.00,,,0.00,0,Wunderground v.1.15,2013-03-06 10:18:00,
2013-03-06 05:23:00,34.8,31.0,30.20,NE,46,3.0,8.0,86,0.00,,,0.00,0,Wunderground v.1.15,2013-03-06 10:23:00,
2013-03-06 05:29:00,34.8,31.3,30.20,North,355,4.0,9.0,87,0.00,,,0.00,0,Wunderground v.1.15,2013-03-06 10:29:00,
2013-03-06 05:34:00,34.7,31.2,30.20,NNW,341,4.0,7.0,87,0.00,,,0.00,0,Wunderground v.1.15,2013-03-06 10:34:00,
2013-03-06 05:39:00,34.7,31.2,30.20,North,360,4.0,7.0,87,0.00,,,0.00,0,Wunderground v.1.15,2013-03-06 10:39:00,
2013-03-06 05:45:00,34.6,31.1,30.19,North,5,3.0,4.0,87,0.00,,,0.00,0,Wunderground v.1.15,2013-03-06 10:45:00,
2013-03-06 05:51:00,34.6,31.1,30.19,East,81,3.0,6.0,87,0.00,,,0.00,0,Wunderground v.1.15,2013-03-06 10:51:00,
2013-03-06 05:56:00,34.6,31.1,30.20,ENE,60,4.0,11.0,87,0.00,,,0.00,0,Wunderground v.1.15,2013-03-06 10:56:00,
2013-03-06 06:02:00,34.5,31.0,30.20,NE,37,5.0,5.0,87,0.00,,,0.00,0,Wunderground v.1.15,2013-03-06 11:02:00,
2013-03-06 06:07:00,34.5,31.0,30.20,North,355,4.0,5.0,87,0.00,,,0.00,5,Wunderground v.1.15,2013-03-06 11:07:00,
2013-03-06 06:12:00,34.4,30.9,30.20,NNE,28,4.0,4.0,87,0.00,,,0.00,9,Wunderground v.1.15,2013-03-06 11:12:00,
2013-03-06 06:17:00,34.4,30.6,30.20,ENE,57,3.0,5.0,86,0.00,,,0.00,18,Wunderground v.1.15,2013-03-06 11:17:00,
2013-03-06 06:23:00,34.3,30.5,30.20,NE,52,3.0,4.0,86,0.00,,,0.00,16,Wunderground v.1.15,2013-03-06 11:23:00,
2013-03-06 06:29:00,34.2,30.4,30.20,NNW,344,4.0,6.0,86,0.00,,,0.00,18,Wunderground v.1.15,2013-03-06 11:29:00,
2013-03-06 06:34:00,34.2,30.4,30.20,NE,55,4.0,8.0,86,0.00,,,0.00,19,Wunderground v.1.15,2013-03-06 11:34:00,
2013-03-06 06:40:00,34.1,30.4,30.20,ENE,64,3.0,3.0,86,0.00,,,0.00,23,Wunderground v.1.15,2013-03-06 11:40:00,
2013-03-06 06:45:00,34.1,30.4,30.20,NNE,22,3.0,5.0,86,0.00,,,0.00,25,Wunderground v.1.15,2013-03-06 11:45:00,
2013-03-06 06:51:00,34.0,30.0,30.21,ENE,65,2.0,2.0,85,0.00,,,0.00,30,Wunderground v.1.15,2013-03-06 11:51:00,
2013-03-06 06:56:00,34.1,30.1,30.21,North,360,3.0,5.0,85,0.00,,,0.00,53,Wunderground v.1.15,2013-03-06 11:56:00,
2013-03-06 07:02:00,34.3,30.3,30.21,ENE,57,3.0,3.0,85,0.00,,,0.00,49,Wunderground v.1.15,2013-03-06 12:02:00,
2013-03-06 07:07:00,34.4,30.1,30.21,NE,55,3.0,6.0,84,0.00,,,0.00,70,Wunderground v.1.15,2013-03-06 12:07:00,
2013-03-06 07:12:00,34.5,30.2,30.21,NE,49,3.0,4.0,84,0.00,,,0.00,83,Wunderground v.1.15,2013-03-06 12:12:00,
2013-03-06 07:18:00,34.7,30.1,30.21,North,9,3.0,11.0,83,0.00,,,0.00,84,Wunderground v.1.15,2013-03-06 12:18:00,
2013-03-06 07:23:00,34.8,30.2,30.22,ENE,65,3.0,5.0,83,0.00,,,0.00,70,Wunderground v.1.15,2013-03-06 12:23:00,
2013-03-06 07:28:00,34.8,29.9,30.22,North,355,4.0,7.0,82,0.00,,,0.00,95,Wunderground v.1.15,2013-03-06 12:28:00,
2013-03-06 07:33:00,34.7,29.8,30.22,NNW,344,4.0,7.0,82,0.00,,,0.00,90,Wunderground v.1.15,2013-03-06 12:33:00,
2013-03-06 07:38:00,34.7,29.8,30.23,SE,142,4.0,7.0,82,0.00,,,0.00,104,Wunderground v.1.15,2013-03-06 12:38:00,
2013-03-06 07:43:00,34.7,29.8,30.23,ENE,58,4.0,5.0,82,0.00,,,0.00,88,Wunderground v.1.15,2013-03-06 12:43:00,
2013-03-06 07:49:00,34.5,28.7,30.23,NE,40,6.0,15.0,79,0.00,,,0.00,79,Wunderground v.1.15,2013-03-06 12:49:00,
2013-03-06 07:54:00,34.4,28.9,30.23,NE,38,6.0,8.0,80,0.00,,,0.00,67,Wunderground v.1.15,2013-03-06 12:54:00,
2013-03-06 07:59:00,34.4,28.9,30.23,North,349,5.0,8.0,80,0.00,,,0.00,156,Wunderground v.1.15,2013-03-06 12:59:00,
2013-03-06 08:04:00,34.4,28.6,30.23,ENE,78,5.0,7.0,79,0.00,,,0.00,160,Wunderground v.1.15,2013-03-06 13:04:00,
2013-03-06 08:09:00,34.6,28.8,30.23,ENE,57,5.0,11.0,79,0.00,,,0.00,204,Wunderground v.1.15,2013-03-06 13:09:00,
2013-03-06 08:15:00,35.1,29.2,30.23,NE,40,6.0,10.0,79,0.00,,,0.00,360,Wunderground v.1.15,2013-03-06 13:15:00,
2013-03-06 08:20:00,35.4,29.2,30.22,ENE,71,6.0,6.0,78,0.00,,,0.00,322,Wunderground v.1.15,2013-03-06 13:20:00,
2013-03-06 08:25:00,35.7,29.5,30.22,NE,54,5.0,9.0,78,0.00,,,0.00,334,Wunderground v.1.15,2013-03-06 13:25:00,
2013-03-06 08:30:00,35.9,29.4,30.22,NNW,336,5.0,8.0,77,0.00,,,0.00,360,Wunderground v.1.15,2013-03-06 13:30:00,
2013-03-06 08:36:00,35.9,29.4,30.22,NE,46,5.0,8.0,77,0.00,,,0.00,211,Wunderground v.1.15,2013-03-06 13:36:00,
2013-03-06 08:41:00,36.0,29.5,30.22,East,90,3.0,3.0,77,0.00,,,0.00,223,Wunderground v.1.15,2013-03-06 13:41:00,
2013-03-06 08:46:00,36.0,29.5,30.23,NNE,22,3.0,8.0,77,0.00,,,0.00,193,Wunderground v.1.15,2013-03-06 13:46:00,
2013-03-06 08:52:00,35.9,29.4,30.23,NNW,330,5.0,9.0,77,0.00,,,0.00,167,Wunderground v.1.15,2013-03-06 13:52:00,
2013-03-06 08:57:00,35.7,29.5,30.23,NNE,22,6.0,9.0,78,0.00,,,0.00,181,Wunderground v.1.15,2013-03-06 13:57:00,
2013-03-06 09:02:00,35.7,29.5,30.23,ENE,62,5.0,14.0,78,0.00,,,0.00,223,Wunderground v.1.15,2013-03-06 14:02:00,
2013-03-06 09:08:00,36.1,29.9,30.23,North,360,4.0,14.0,78,0.00,,,0.00,392,Wunderground v.1.15,2013-03-06 14:08:00,
2013-03-06 09:13:00,37.0,30.8,30.23,North,5,3.0,4.0,78,0.00,,,0.00,308,Wunderground v.1.15,2013-03-06 14:13:00,
2013-03-06 09:19:00,36.5,30.0,30.23,ENE,75,4.0,8.0,77,0.00,,,0.00,206,Wunderground v.1.15,2013-03-06 14:19:00,
2013-03-06 09:24:00,36.4,29.9,30.23,North,355,5.0,8.0,77,0.00,,,0.00,211,Wunderground v.1.15,2013-03-06 14:24:00,
2013-03-06 09:29:00,36.4,29.9,30.22,NNE,17,4.0,8.0,77,0.00,,,0.00,251,Wunderground v.1.15,2013-03-06 14:29:00,
2013-03-06 09:35:00,36.6,30.4,30.22,ENE,59,4.0,5.0,78,0.00,,,0.00,236,Wunderground v.1.15,2013-03-06 14:35:00,
2013-03-06 09:40:00,36.7,30.2,30.22,NNE,33,4.0,7.0,77,0.00,,,0.00,167,Wunderground v.1.15,2013-03-06 14:40:00,
2013-03-06 09:46:00,36.6,30.1,30.23,NNE,26,5.0,12.0,77,0.00,,,0.00,155,Wunderground v.1.15,2013-03-06 14:46:00,
2013-03-06 09:51:00,36.6,30.1,30.23,NE,42,3.0,3.0,77,0.00,,,0.00,148,Wunderground v.1.15,2013-03-06 14:51:00,
2013-03-06 09:56:00,36.6,30.1,30.23,ENE,59,3.0,7.0,77,0.00,,,0.00,134,Wunderground v.1.15,2013-03-06 14:56:00,
2013-03-06 10:01:00,36.5,30.0,30.23,NNE,26,4.0,4.0,77,0.00,,,0.00,141,Wunderground v.1.15,2013-03-06 15:01:00,
2013-03-06 10:07:00,36.5,30.0,30.24,NE,38,4.0,10.0,77,0.00,,,0.00,186,Wunderground v.1.15,2013-03-06 15:07:00,
2013-03-06 10:12:00,36.5,30.0,30.23,ENE,70,6.0,11.0,77,0.00,,,0.00,230,Wunderground v.1.15,2013-03-06 15:12:00,
2013-03-06 10:18:00,36.7,30.2,30.23,NNE,30,5.0,11.0,77,0.00,,,0.00,237,Wunderground v.1.15,2013-03-06 15:18:00,
2013-03-06 10:24:00,36.8,30.3,30.23,NE,55,5.0,8.0,77,0.00,,,0.00,204,Wunderground v.1.15,2013-03-06 15:24:00,
2013-03-06 10:29:00,36.8,30.3,30.24,East,100,5.0,10.0,77,0.00,,,0.00,151,Wunderground v.1.15,2013-03-06 15:29:00,
2013-03-06 10:34:00,36.9,30.4,30.24,NE,42,3.0,7.0,77,0.00,,,0.00,155,Wunderground v.1.15,2013-03-06 15:34:00,
2013-03-06 10:39:00,36.9,30.4,30.24,North,355,3.0,7.0,77,0.00,,,0.00,139,Wunderground v.1.15,2013-03-06 15:39:00,
2013-03-06 10:45:00,36.9,30.4,30.24,East,98,4.0,7.0,77,0.00,,,0.00,144,Wunderground v.1.15,2013-03-06 15:45:00,
2013-03-06 10:50:00,36.8,30.3,30.24,ESE,105,5.0,5.0,77,0.00,,,0.00,167,Wunderground v.1.15,2013-03-06 15:50:00,
2013-03-06 10:55:00,36.9,30.4,30.25,ENE,63,6.0,11.0,77,0.00,,,0.00,258,Wunderground v.1.15,2013-03-06 15:55:00,
2013-03-06 11:01:00,37.1,30.6,30.25,ENE,74,5.0,5.0,77,0.00,,,0.00,206,Wunderground v.1.15,2013-03-06 16:01:00,
2013-03-06 11:06:00,37.1,30.6,30.24,ENE,61,4.0,8.0,77,0.00,,,0.00,169,Wunderground v.1.15,2013-03-06 16:06:00,
2013-03-06 11:12:00,37.1,30.6,30.25,East,92,4.0,7.0,77,0.00,,,0.00,230,Wunderground v.1.15,2013-03-06 16:12:00,
2013-03-06 11:17:00,37.2,30.3,30.25,ENE,65,5.0,8.0,76,0.00,,,0.00,255,Wunderground v.1.15,2013-03-06 16:17:00,
2013-03-06 11:22:00,37.3,30.4,30.25,East,80,5.0,6.0,76,0.00,,,0.00,246,Wunderground v.1.15,2013-03-06 16:22:00,
2013-03-06 11:28:00,37.3,30.4,30.24,ENE,63,5.0,7.0,76,0.00,,,0.00,229,Wunderground v.1.15,2013-03-06 16:28:00,
2013-03-06 11:33:00,37.5,30.6,30.24,North,355,4.0,4.0,76,0.00,,,0.00,144,Wunderground v.1.15,2013-03-06 16:33:00,
2013-03-06 11:38:00,37.4,30.5,30.24,NNE,26,3.0,5.0,76,0.00,,,0.00,165,Wunderground v.1.15,2013-03-06 16:38:00,
2013-03-06 11:44:00,37.1,31.2,30.25,ENE,62,5.0,9.0,79,0.00,,,0.00,62,Wunderground v.1.15,2013-03-06 16:44:00,
2013-03-06 11:50:00,34.8,31.0,30.25,NE,49,6.0,6.0,86,0.00,,,0.00,250,Wunderground v.1.15,2013-03-06 16:50:00,
2013-03-06 11:55:00,34.2,31.0,30.25,East,85,6.0,10.0,88,0.00,,,0.00,206,Wunderground v.1.15,2013-03-06 16:55:00,
2013-03-06 12:00:00,33.9,31.0,30.24,North,10,6.0,8.0,89,0.00,,,0.01,251,Wunderground v.1.15,2013-03-06 17:00:00,
2013-03-06 12:05:00,34.3,31.7,30.24,ENE,68,4.0,8.0,90,0.00,,,0.01,348,Wunderground v.1.15,2013-03-06 17:05:00,
2013-03-06 12:10:00,34.7,31.8,30.24,North,5,3.0,3.0,89,0.00,,,0.01,272,Wunderground v.1.15,2013-03-06 17:10:00,
2013-03-06 12:15:00,35.1,31.6,30.24,East,92,4.0,7.0,87,0.04,,,0.02,292,Wunderground v.1.15,2013-03-06 17:15:00,
2013-03-06 12:21:00,35.6,31.5,30.24,NE,47,4.0,7.0,85,0.04,,,0.02,285,Wunderground v.1.15,2013-03-06 17:21:00,
2013-03-06 12:26:00,35.9,31.5,30.24,East,80,3.0,7.0,84,0.04,,,0.02,308,Wunderground v.1.15,2013-03-06 17:26:00,
2013-03-06 12:32:00,36.2,31.2,30.23,NW,321,4.0,4.0,82,0.00,,,0.02,313,Wunderground v.1.15,2013-03-06 17:32:00,
2013-03-06 12:38:00,36.4,31.1,30.23,ENE,59,4.0,11.0,81,0.00,,,0.02,313,Wunderground v.1.15,2013-03-06 17:38:00,
2013-03-06 12:43:00,36.4,30.8,30.23,East,83,5.0,9.0,80,0.00,,,0.02,308,Wunderground v.1.15,2013-03-06 17:43:00,
2013-03-06 12:48:00,36.4,30.5,30.23,East,91,6.0,10.0,79,0.00,,,0.02,369,Wunderground v.1.15,2013-03-06 17:48:00,
2013-03-06 12:54:00,36.5,30.9,30.23,NNE,32,6.0,8.0,80,0.00,,,0.02,410,Wunderground v.1.15,2013-03-06 17:54:00,
2013-03-06 13:00:00,36.4,31.1,30.23,ENE,72,6.0,6.0,81,0.00,,,0.02,192,Wunderground v.1.15,2013-03-06 18:00:00,
2013-03-06 13:05:00,36.2,30.6,30.23,East,89,6.0,15.0,80,0.00,,,0.02,218,Wunderground v.1.15,2013-03-06 18:05:00,
2013-03-06 13:10:00,35.8,30.8,30.22,ESE,112,6.0,6.0,82,0.00,,,0.02,251,Wunderground v.1.15,2013-03-06 18:10:00,
2013-03-06 13:15:00,35.5,30.5,30.22,ENE,57,6.0,10.0,82,0.00,,,0.02,183,Wunderground v.1.15,2013-03-06 18:15:00,
2013-03-06 13:21:00,35.3,30.7,30.22,East,99,5.0,5.0,83,0.00,,,0.02,216,Wunderground v.1.15,2013-03-06 18:21:00,
2013-03-06 13:26:00,35.6,30.6,30.22,North,5,4.0,7.0,82,0.00,,,0.02,206,Wunderground v.1.15,2013-03-06 18:26:00,
2013-03-06 13:31:00,35.7,30.4,30.23,North,360,5.0,6.0,81,0.00,,,0.02,153,Wunderground v.1.15,2013-03-06 18:31:00,
2013-03-06 13:36:00,35.7,30.1,30.22,NNE,17,5.0,11.0,80,0.00,,,0.02,192,Wunderground v.1.15,2013-03-06 18:36:00,
2013-03-06 13:41:00,35.8,30.2,30.23,ENE,69,5.0,8.0,80,0.00,,,0.02,218,Wunderground v.1.15,2013-03-06 18:41:00,
2013-03-06 13:46:00,36.0,30.1,30.22,East,94,5.0,9.0,79,0.00,,,0.02,232,Wunderground v.1.15,2013-03-06 18:46:00,
2013-03-06 13:51:00,36.1,29.6,30.22,NE,43,6.0,6.0,77,0.00,,,0.02,223,Wunderground v.1.15,2013-03-06 18:51:00,
2013-03-06 13:57:00,36.0,29.5,30.22,East,82,7.0,15.0,77,0.00,,,0.02,243,Wunderground v.1.15,2013-03-06 18:57:00,
2013-03-06 14:02:00,36.1,29.6,30.22,ENE,78,7.0,13.0,77,0.00,,,0.02,255,Wunderground v.1.15,2013-03-06 19:02:00,
2013-03-06 14:07:00,36.2,29.7,30.22,NNE,24,7.0,18.0,77,0.00,,,0.02,278,Wunderground v.1.15,2013-03-06 19:07:00,
2013-03-06 14:12:00,36.3,29.5,30.22,NE,42,7.0,13.0,76,0.00,,,0.02,220,Wunderground v.1.15,2013-03-06 19:12:00,
2013-03-06 14:18:00,36.2,29.4,30.22,SE,125,9.0,16.0,76,0.00,,,0.02,171,Wunderground v.1.15,2013-03-06 19:18:00,
2013-03-06 14:23:00,36.1,29.3,30.22,East,80,7.0,9.0,76,0.00,,,0.02,176,Wunderground v.1.15,2013-03-06 19:23:00,
2013-03-06 14:28:00,36.1,29.6,30.22,North,355,5.0,10.0,77,0.00,,,0.02,171,Wunderground v.1.15,2013-03-06 19:28:00,
2013-03-06 14:33:00,35.9,29.4,30.22,ENE,59,7.0,11.0,77,0.00,,,0.02,181,Wunderground v.1.15,2013-03-06 19:33:00,
2013-03-06 14:39:00,35.9,29.1,30.22,NNE,18,7.0,11.0,76,0.00,,,0.02,144,Wunderground v.1.15,2013-03-06 19:39:00,
2013-03-06 14:45:00,35.7,28.9,30.22,NE,42,8.0,10.0,76,0.00,,,0.02,120,Wunderground v.1.15,2013-03-06 19:45:00,
2013-03-06 14:50:00,35.7,28.9,30.23,ENE,64,7.0,7.0,76,0.00,,,0.02,137,Wunderground v.1.15,2013-03-06 19:50:00,
2013-03-06 14:56:00,35.7,28.9,30.23,ENE,74,6.0,12.0,76,0.00,,,0.02,102,Wunderground v.1.15,2013-03-06 19:56:00,
2013-03-06 15:02:00,35.7,28.9,30.22,NE,37,5.0,14.0,76,0.00,,,0.02,69,Wunderground v.1.15,2013-03-06 20:02:00,
2013-03-06 15:07:00,35.5,29.0,30.23,ENE,70,5.0,14.0,77,0.00,,,0.02,86,Wunderground v.1.15,2013-03-06 20:07:00,
2013-03-06 15:12:00,35.2,29.0,30.23,WNW,301,6.0,6.0,78,0.00,,,0.02,88,Wunderground v.1.15,2013-03-06 20:12:00,
2013-03-06 15:18:00,35.1,29.2,30.23,ENE,72,5.0,6.0,79,0.00,,,0.02,62,Wunderground v.1.15,2013-03-06 20:18:00,
2013-03-06 15:23:00,35.0,29.1,30.23,ENE,73,4.0,8.0,79,0.00,,,0.02,83,Wunderground v.1.15,2013-03-06 20:23:00,
2013-03-06 15:29:00,35.1,28.9,30.23,ENE,61,6.0,13.0,78,0.00,,,0.02,113,Wunderground v.1.15,2013-03-06 20:29:00,
2013-03-06 15:34:00,35.0,29.1,30.24,ENE,76,7.0,9.0,79,0.00,,,0.02,88,Wunderground v.1.15,2013-03-06 20:34:00,
2013-03-06 15:39:00,34.7,28.9,30.24,NNE,28,7.0,11.0,79,0.00,,,0.02,77,Wunderground v.1.15,2013-03-06 20:39:00,
2013-03-06 15:44:00,34.7,28.9,30.24,East,83,6.0,7.0,79,0.00,,,0.02,70,Wunderground v.1.15,2013-03-06 20:44:00,
2013-03-06 15:49:00,34.8,28.6,30.24,ENE,78,5.0,7.0,78,0.00,,,0.02,65,Wunderground v.1.15,2013-03-06 20:49:00,
2013-03-06 15:55:00,34.7,28.9,30.24,ESE,104,5.0,9.0,79,0.00,,,0.02,51,Wunderground v.1.15,2013-03-06 20:55:00,
2013-03-06 16:01:00,34.7,28.9,30.24,East,101,4.0,4.0,79,0.00,,,0.02,69,Wunderground v.1.15,2013-03-06 21:01:00,
2013-03-06 16:06:00,34.6,28.8,30.24,ENE,71,4.0,7.0,79,0.00,,,0.02,69,Wunderground v.1.15,2013-03-06 21:06:00,
2013-03-06 16:12:00,34.5,29.0,30.24,ENE,68,5.0,10.0,80,0.00,,,0.02,60,Wunderground v.1.15,2013-03-06 21:12:00,
2013-03-06 16:17:00,34.4,28.9,30.24,ENE,78,5.0,10.0,80,0.00,,,0.02,44,Wunderground v.1.15,2013-03-06 21:17:00,
2013-03-06 16:22:00,34.3,29.1,30.24,ENE,63,4.0,8.0,81,0.00,,,0.02,47,Wunderground v.1.15,2013-03-06 21:22:00,
2013-03-06 16:27:00,34.1,29.2,30.24,ENE,57,5.0,8.0,82,0.00,,,0.02,39,Wunderground v.1.15,2013-03-06 21:27:00,
2013-03-06 16:33:00,34.0,29.1,30.24,North,10,4.0,8.0,82,0.00,,,0.02,30,Wunderground v.1.15,2013-03-06 21:33:00,
2013-03-06 16:38:00,33.9,29.3,30.24,North,355,5.0,10.0,83,0.00,,,0.02,28,Wunderground v.1.15,2013-03-06 21:38:00,
2013-03-06 16:44:00,33.7,29.1,30.24,ESE,112,4.0,10.0,83,0.00,,,0.02,21,Wunderground v.1.15,2013-03-06 21:44:00,
2013-03-06 16:50:00,33.7,29.4,30.24,North,9,4.0,10.0,84,0.00,,,0.02,16,Wunderground v.1.15,2013-03-06 21:50:00,
2013-03-06 16:56:00,33.7,29.1,30.24,North,355,4.0,10.0,83,0.00,,,0.02,16,Wunderground v.1.15,2013-03-06 21:56:00,
2013-03-06 17:01:00,33.7,28.8,30.24,NE,46,5.0,7.0,82,0.00,,,0.02,12,Wunderground v.1.15,2013-03-06 22:01:00,
2013-03-06 17:06:00,33.9,29.0,30.24,North,360,4.0,7.0,82,0.00,,,0.02,11,Wunderground v.1.15,2013-03-06 22:06:00,
2013-03-06 17:12:00,33.9,28.7,30.24,ENE,74,3.0,5.0,81,0.00,,,0.02,9,Wunderground v.1.15,2013-03-06 22:12:00,
2013-03-06 17:17:00,34.1,28.6,30.24,ENE,78,4.0,13.0,80,0.00,,,0.02,5,Wunderground v.1.15,2013-03-06 22:17:00,
2013-03-06 17:23:00,34.2,28.1,30.24,ENE,75,4.0,9.0,78,0.00,,,0.02,0,Wunderground v.1.15,2013-03-06 22:23:00,
2013-03-06 17:28:00,34.3,27.8,30.24,ENE,74,4.0,10.0,77,0.00,,,0.02,0,Wunderground v.1.15,2013-03-06 22:28:00,
2013-03-06 17:34:00,34.4,27.6,30.24,NE,42,5.0,10.0,76,0.00,,,0.02,0,Wunderground v.1.15,2013-03-06 22:34:00,
2013-03-06 17:40:00,34.4,27.6,30.24,ENE,74,5.0,5.0,76,0.00,,,0.02,0,Wunderground v.1.15,2013-03-06 22:40:00,
2013-03-06 17:45:00,34.3,27.5,30.25,ENE,74,5.0,7.0,76,0.00,,,0.02,0,Wunderground v.1.15,2013-03-06 22:45:00,
2013-03-06 17:50:00,34.4,27.6,30.25,ENE,58,5.0,7.0,76,0.00,,,0.02,0,Wunderground v.1.15,2013-03-06 22:50:00,
2013-03-06 17:56:00,34.3,27.5,30.25,ENE,67,4.0,7.0,76,0.00,,,0.02,0,Wunderground v.1.15,2013-03-06 22:56:00,
2013-03-06 18:01:00,34.3,27.5,30.25,NE,49,3.0,7.0,76,0.00,,,0.02,0,Wunderground v.1.15,2013-03-06 23:01:00,
2013-03-06 18:07:00,34.3,27.2,30.26,ENE,60,3.0,7.0,75,0.00,,,0.02,0,Wunderground v.1.15,2013-03-06 23:07:00,
2013-03-06 18:12:00,34.3,27.2,30.26,NE,51,3.0,3.0,75,0.00,,,0.02,0,Wunderground v.1.15,2013-03-06 23:12:00,
2013-03-06 18:17:00,34.3,27.2,30.26,NNE,15,3.0,7.0,75,0.00,,,0.02,0,Wunderground v.1.15,2013-03-06 23:17:00,
2013-03-06 18:22:00,34.2,27.4,30.26,NE,50,4.0,5.0,76,0.00,,,0.02,0,Wunderground v.1.15,2013-03-06 23:22:00,
2013-03-06 18:28:00,34.2,27.1,30.25,ENE,58,4.0,10.0,75,0.00,,,0.02,0,Wunderground v.1.15,2013-03-06 23:28:00,
2013-03-06 18:34:00,34.2,27.1,30.26,East,101,5.0,6.0,75,0.00,,,0.02,0,Wunderground v.1.15,2013-03-06 23:34:00,
2013-03-06 18:39:00,34.2,27.1,30.25,ENE,76,5.0,8.0,75,0.00,,,0.02,0,Wunderground v.1.15,2013-03-06 23:39:00,
2013-03-06 18:44:00,34.2,27.1,30.26,East,82,4.0,6.0,75,0.00,,,0.02,0,Wunderground v.1.15,2013-03-06 23:44:00,
2013-03-06 18:49:00,34.2,27.1,30.25,East,90,4.0,7.0,75,0.00,,,0.02,0,Wunderground v.1.15,2013-03-06 23:49:00,
2013-03-06 18:54:00,34.2,27.1,30.25,NNW,329,5.0,9.0,75,0.00,,,0.02,0,Wunderground v.1.15,2013-03-06 23:54:00,
2013-03-06 19:00:00,34.1,27.3,30.25,ENE,60,3.0,3.0,76,0.00,,,0.02,0,Wunderground v.1.15,2013-03-07 00:00:00,
2013-03-06 19:05:00,34.1,27.3,30.26,ENE,67,3.0,12.0,76,0.00,,,0.02,0,Wunderground v.1.15,2013-03-07 00:05:00,
2013-03-06 19:11:00,34.1,27.3,30.26,NNE,32,4.0,4.0,76,0.00,,,0.02,0,Wunderground v.1.15,2013-03-07 00:11:00,
2013-03-06 19:17:00,34.1,27.3,30.25,ESE,105,4.0,10.0,76,0.00,,,0.02,0,Wunderground v.1.15,2013-03-07 00:17:00,
2013-03-06 19:22:00,34.0,27.5,30.25,NNE,18,5.0,7.0,77,0.00,,,0.02,0,Wunderground v.1.15,2013-03-07 00:22:00,
2013-03-06 19:28:00,33.7,27.6,30.25,ESE,121,5.0,7.0,78,0.00,,,0.02,0,Wunderground v.1.15,2013-03-07 00:28:00,
2013-03-06 19:33:00,33.6,27.8,30.26,NE,50,4.0,7.0,79,0.00,,,0.02,0,Wunderground v.1.15,2013-03-07 00:33:00,
2013-03-06 19:38:00,33.4,27.9,30.25,NNE,17,4.0,7.0,80,0.00,,,0.02,0,Wunderground v.1.15,2013-03-07 00:38:00,
2013-03-06 19:44:00,33.2,28.0,30.25,NNW,346,4.0,4.0,81,0.00,,,0.02,0,Wunderground v.1.15,2013-03-07 00:44:00,
2013-03-06 19:49:00,33.0,27.8,30.25,NNW,331,3.0,4.0,81,0.00,,,0.02,0,Wunderground v.1.15,2013-03-07 00:49:00,
2013-03-06 19:55:00,32.9,28.0,30.25,NE,49,3.0,5.0,82,0.00,,,0.02,0,Wunderground v.1.15,2013-03-07 00:55:00,
2013-03-06 20:00:00,32.7,27.8,30.25,North,10,3.0,4.0,82,0.00,,,0.02,0,Wunderground v.1.15,2013-03-07 01:00:00,
2013-03-06 20:05:00,32.6,28.0,30.24,NW,305,3.0,6.0,83,0.00,,,0.02,0,Wunderground v.1.15,2013-03-07 01:05:00,
2013-03-06 20:11:00,32.6,28.0,30.25,NNW,329,3.0,3.0,83,0.00,,,0.02,0,Wunderground v.1.15,2013-03-07 01:11:00,
2013-03-06 20:16:00,32.5,27.9,30.24,NNW,338,3.0,4.0,83,0.00,,,0.02,0,Wunderground v.1.15,2013-03-07 01:16:00,
2013-03-06 20:21:00,32.5,27.9,30.24,NNW,327,4.0,4.0,83,0.00,,,0.02,0,Wunderground v.1.15,2013-03-07 01:21:00,
2013-03-06 20:26:00,32.5,27.6,30.24,ENE,66,4.0,9.0,82,0.00,,,0.02,0,Wunderground v.1.15,2013-03-07 01:26:00,
2013-03-06 20:31:00,32.5,27.6,30.24,North,355,4.0,5.0,82,0.00,,,0.02,0,Wunderground v.1.15,2013-03-07 01:31:00,
2013-03-06 20:37:00,32.5,27.6,30.24,North,5,4.0,5.0,82,0.00,,,0.02,0,Wunderground v.1.15,2013-03-07 01:37:00,
2013-03-06 20:42:00,32.5,27.6,30.24,NNE,22,4.0,7.0,82,0.00,,,0.02,0,Wunderground v.1.15,2013-03-07 01:42:00,
2013-03-06 20:47:00,32.5,27.6,30.24,NNW,345,4.0,7.0,82,0.00,,,0.02,0,Wunderground v.1.15,2013-03-07 01:47:00,
2013-03-06 20:52:00,32.5,27.6,30.24,NE,39,3.0,4.0,82,0.00,,,0.02,0,Wunderground v.1.15,2013-03-07 01:52:00,
2013-03-06 20:57:00,32.5,27.6,30.24,North,9,2.0,4.0,82,0.00,,,0.02,0,Wunderground v.1.15,2013-03-07 01:57:00,
2013-03-06 21:02:00,32.4,27.5,30.24,East,90,3.0,7.0,82,0.00,,,0.02,0,Wunderground v.1.15,2013-03-07 02:02:00,
2013-03-06 21:08:00,32.5,27.6,30.24,ENE,67,4.0,7.0,82,0.00,,,0.02,0,Wunderground v.1.15,2013-03-07 02:08:00,
2013-03-06 21:14:00,32.5,27.6,30.24,West,281,4.0,7.0,82,0.00,,,0.02,0,Wunderground v.1.15,2013-03-07 02:14:00,
2013-03-06 21:19:00,32.5,27.6,30.23,ENE,60,4.0,7.0,82,0.00,,,0.02,0,Wunderground v.1.15,2013-03-07 02:19:00,
2013-03-06 21:24:00,32.4,27.5,30.23,NNE,29,4.0,7.0,82,0.00,,,0.02,0,Wunderground v.1.15,2013-03-07 02:24:00,
2013-03-06 21:29:00,32.4,27.5,30.23,ENE,57,4.0,7.0,82,0.00,,,0.02,0,Wunderground v.1.15,2013-03-07 02:29:00,
2013-03-06 21:35:00,32.3,27.7,30.22,ESE,102,4.0,6.0,83,0.00,,,0.02,0,Wunderground v.1.15,2013-03-07 02:35:00,
2013-03-06 21:40:00,32.3,27.4,30.22,East,90,5.0,7.0,82,0.00,,,0.02,0,Wunderground v.1.15,2013-03-07 02:40:00,
2013-03-06 21:46:00,32.4,27.5,30.22,NE,56,4.0,7.0,82,0.00,,,0.02,0,Wunderground v.1.15,2013-03-07 02:46:00,
2013-03-06 21:52:00,32.4,27.5,30.22,North,355,4.0,5.0,82,0.00,,,0.02,0,Wunderground v.1.15,2013-03-07 02:52:00,
2013-03-06 21:58:00,32.4,27.5,30.22,NNE,26,3.0,5.0,82,0.00,,,0.02,0,Wunderground v.1.15,2013-03-07 02:58:00,
2013-03-06 22:03:00,32.4,27.2,30.21,NNE,32,3.0,3.0,81,0.00,,,0.02,0,Wunderground v.1.15,2013-03-07 03:03:00,
2013-03-06 22:09:00,32.5,27.3,30.21,NNE,28,3.0,11.0,81,0.00,,,0.02,0,Wunderground v.1.15,2013-03-07 03:09:00,
2013-03-06 22:15:00,32.5,27.0,30.21,North,5,4.0,8.0,80,0.00,,,0.02,0,Wunderground v.1.15,2013-03-07 03:15:00,
2013-03-06 22:21:00,32.6,26.8,30.21,NE,38,3.0,4.0,79,0.00,,,0.02,0,Wunderground v.1.15,2013-03-07 03:21:00,
2013-03-06 22:26:00,32.6,26.8,30.21,East,96,3.0,4.0,79,0.00,,,0.02,0,Wunderground v.1.15,2013-03-07 03:26:00,
2013-03-06 22:32:00,32.7,26.9,30.21,NNW,334,4.0,8.0,79,0.00,,,0.02,0,Wunderground v.1.15,2013-03-07 03:32:00,
2013-03-06 22:37:00,32.8,26.7,30.21,NE,42,5.0,8.0,78,0.00,,,0.02,0,Wunderground v.1.15,2013-03-07 03:37:00,
2013-03-06 22:42:00,32.8,26.7,30.21,NE,55,4.0,8.0,78,0.00,,,0.02,0,Wunderground v.1.15,2013-03-07 03:42:00,
2013-03-06 22:48:00,32.8,26.7,30.21,NNW,336,5.0,8.0,78,0.00,,,0.02,0,Wunderground v.1.15,2013-03-07 03:48:00,
2013-03-06 22:54:00,32.8,26.4,30.21,NW,325,4.0,6.0,77,0.00,,,0.02,0,Wunderground v.1.15,2013-03-07 03:54:00,
2013-03-06 22:59:00,32.8,26.4,30.21,NE,49,4.0,6.0,77,0.00,,,0.02,0,Wunderground v.1.15,2013-03-07 03:59:00,
2013-03-06 23:05:00,32.8,26.4,30.21,NNE,12,4.0,5.0,77,0.00,,,0.02,0,Wunderground v.1.15,2013-03-07 04:05:00,
2013-03-06 23:10:00,32.8,26.1,30.21,North,5,3.0,3.0,76,0.00,,,0.02,0,Wunderground v.1.15,2013-03-07 04:10:00,
2013-03-06 23:16:00,32.9,26.2,30.21,ENE,57,5.0,10.0,76,0.00,,,0.02,0,Wunderground v.1.15,2013-03-07 04:16:00,
2013-03-06 23:21:00,32.9,26.2,30.21,NNE,26,4.0,4.0,76,0.00,,,0.02,0,Wunderground v.1.15,2013-03-07 04:21:00,
2013-03-06 23:27:00,32.9,26.2,30.21,NNE,24,4.0,10.0,76,0.00,,,0.02,0,Wunderground v.1.15,2013-03-07 04:27:00,
2013-03-06 23:32:00,32.9,26.2,30.21,NW,319,4.0,5.0,76,0.00,,,0.02,0,Wunderground v.1.15,2013-03-07 04:32:00,
2013-03-06 23:37:00,32.9,26.2,30.21,NW,326,3.0,5.0,76,0.00,,,0.02,0,Wunderground v.1.15,2013-03-07 04:37:00,
2013-03-06 23:43:00,32.8,26.1,30.20,ENE,57,4.0,10.0,76,0.00,,,0.02,0,Wunderground v.1.15,2013-03-07 04:43:00,
2013-03-06 23:48:00,32.8,26.1,30.20,North,5,4.0,10.0,76,0.00,,,0.02,0,Wunderground v.1.15,2013-03-07 04:48:00,
2013-03-06 23:53:00,32.8,26.1,30.20,NNE,28,3.0,7.0,76,0.00,,,0.02,0,Wunderground v.1.15,2013-03-07 04:53:00,
2013-03-06 23:58:00,32.7,26.0,30.19,ENE,71,4.0,7.0,76,0.00,,,0.00,0,Wunderground v.1.15,2013-03-07 04:58:00,